Location: *
(40.7873°S, 98.7174°E)
Time: 01:03:28
(UTC+00:00)

ARIANE 6 FM1 Upper Stage - Pass Details

Date: 16 December 2025
Orbit: 522 x 610 km, 62.0° (Epoch: 20 January)

Event Time Altitude Azimuth Distance (km) Brightness Sun altitude
Rises 20:27:16 0° 229° (SW) 2,897 6.3 -12.7°
Reaches altitude 10° 20:29:55 10° 242° (WSW) 1,975 5.3 -12.3°
Maximum altitude 20:33:29 24° 295° (WNW) 1,265 3.9 -11.8°
Enters shadow 20:36:24 13° 344° (NNW) 1,738 4.6 -11.5°
